owner,sensor,date,latitude,longitude,vertical_datum,wind_speed,wind_to_direction,wind_speed_of_gust,qcFlag 
ADCP,ioos:station:wmo:42374:1,2010-05-06T00:00:00Z,28.8660,-88.0560,1.0,0.0,55.0,99.0,'11111222,11111222,11144222' 
ADCP,ioos:station:wmo:42374:1,2010-05-06T00:20:00Z,28.8660,-88.0560,1.0,0.0,52.0,99.0,'11111222,11111222,11144222' 
ADCP,ioos:station:wmo:42374:1,2010-05-06T00:40:00Z,28.8660,-88.0560,1.0,0.0,50.0,99.0,'11111222,11111222,11144222' 
ADCP,ioos:station:wmo:42374:1,2010-05-06T01:00:00Z,28.8660,-88.0560,1.0,0.0,50.0,99.0,'11111222,11111222,11144222' 
ADCP,ioos:station:wmo:42374:1,2010-05-06T01:20:00Z,28.8660,-88.0560,1.0,0.0,37.0,99.0,'11111222,11111222,11144222' 
ADCP,ioos:station:wmo:42374:1,2010-05-06T01:40:00Z,28.8660,-88.0560,1.0,0.0,78.0,99.0,'11111222,11111222,11144222' 
ADCP,ioos:station:wmo:42374:1,2010-05-06T02:00:00Z,28.8660,-88.0560,1.0,0.0,78.0,99.0,'11111222,11111222,11144222' 
ADCP,ioos:station:wmo:42374:1,2010-05-06T02:20:00Z,28.8660,-88.0560,1.0,0.0,131.0,99.0,'11111222,11111222,11144222' 
ADCP,ioos:station:wmo:42374:1,2010-05-06T02:40:00Z,28.8660,-88.0560,1.0,0.0,143.0,99.0,'11111222,11111222,11144222' 
ADCP,ioos:station:wmo:42374:1,2010-05-06T03:00:00Z,28.8660,-88.0560,1.0,0.0,143.0,99.0,'11111222,11111222,11144222' 
ADCP,ioos:station:wmo:42374:1,2010-05-06T03:20:00Z,28.8660,-88.0560,1.0,0.0,178.0,99.0,'11111222,11111222,11144222' 
ADCP,ioos:station:wmo:42374:1,2010-05-06T03:40:00Z,28.8660,-88.0560,1.0,0.0,174.0,99.0,'11111222,11111222,11144222' 
ADCP,ioos:station:wmo:42374:1,2010-05-06T04:00:00Z,28.8660,-88.0560,1.0,0.0,174.0,99.0,'11111222,11111222,11144222' 
ADCP,ioos:station:wmo:42374:1,2010-05-06T04:20:00Z,28.8660,-88.0560,1.0,0.0,190.0,99.0,'11111222,11111222,11144222' 
ADCP,ioos:station:wmo:42374:1,2010-05-06T04:40:00Z,28.8660,-88.0560,1.0,0.0,181.0,99.0,'11111222,11111222,11144222' 
ADCP,ioos:station:wmo:42374:1,2010-05-06T05:00:00Z,28.8660,-88.0560,1.0,0.0,181.0,99.0,'11111222,11111222,11144222' 
ADCP,ioos:station:wmo:42374:1,2010-05-06T05:20:00Z,28.8660,-88.0560,1.0,0.0,188.0,99.0,'11111222,11111222,11144222' 
ADCP,ioos:station:wmo:42374:1,2010-05-06T05:40:00Z,28.8660,-88.0560,1.0,0.0,194.0,99.0,'11111222,11111222,11144222' 
ADCP,ioos:station:wmo:42374:1,2010-05-06T06:00:00Z,28.8660,-88.0560,1.0,0.0,194.0,99.0,'11111222,11111222,11144222' 
ADCP,ioos:station:wmo:42374:1,2010-05-06T06:20:00Z,28.8660,-88.0560,1.0,0.0,194.0,99.0,'11111222,11111222,11144222' 
ADCP,ioos:station:wmo:42374:1,2010-05-06T06:40:00Z,28.8660,-88.0560,1.0,0.0,194.0,99.0,'11111222,11111222,11144222' 
ADCP,ioos:station:wmo:42374:1,2010-05-06T07:00:00Z,28.8660,-88.0560,1.0,0.0,194.0,99.0,'11111222,11111222,11144222' 
ADCP,ioos:station:wmo:42374:1,2010-05-06T07:20:00Z,28.8660,-88.0560,1.0,0.0,194.0,99.0,'11111222,11111222,11144222' 
ADCP,ioos:station:wmo:42374:1,2010-05-06T07:40:00Z,28.8660,-88.0560,1.0,0.0,194.0,99.0,'11111222,11111222,11144222' 
ADCP,ioos:station:wmo:42374:1,2010-05-06T08:00:00Z,28.8660,-88.0560,1.0,0.0,194.0,99.0,'11111222,11111222,11144222' 
ADCP,ioos:station:wmo:42374:1,2010-05-06T08:20:00Z,28.8660,-88.0560,1.0,0.0,185.0,99.0,'11111222,11111222,11144222' 
ADCP,ioos:station:wmo:42374:1,2010-05-06T08:40:00Z,28.8660,-88.0560,1.0,0.0,186.0,99.0,'11111222,11111222,11144222' 
ADCP,ioos:station:wmo:42374:1,2010-05-06T09:00:00Z,28.8660,-88.0560,1.0,0.0,186.0,99.0,'11111222,11111222,11144222' 
ADCP,ioos:station:wmo:42374:1,2010-05-06T09:20:00Z,28.8660,-88.0560,1.0,0.0,195.0,99.0,'11111222,11111222,11144222' 
ADCP,ioos:station:wmo:42374:1,2010-05-06T09:40:00Z,28.8660,-88.0560,1.0,0.0,203.0,99.0,'11111222,11111222,11144222' 
ADCP,ioos:station:wmo:42374:1,2010-05-06T10:00:00Z,28.8660,-88.0560,1.0,0.0,203.0,99.0,'11111222,11111222,11144222' 
ADCP,ioos:station:wmo:42374:1,2010-05-06T10:20:00Z,28.8660,-88.0560,1.0,0.0,205.0,99.0,'11111222,11111222,11144222' 
ADCP,ioos:station:wmo:42374:1,2010-05-06T10:40:00Z,28.8660,-88.0560,1.0,0.0,205.0,99.0,'11111222,11111222,11144222' 
ADCP,ioos:station:wmo:42374:1,2010-05-06T11:00:00Z,28.8660,-88.0560,1.0,0.0,205.0,99.0,'11111222,11111222,11144222' 
ADCP,ioos:station:wmo:42374:1,2010-05-06T11:20:00Z,28.8660,-88.0560,1.0,0.0,208.0,99.0,'11111222,11111222,11144222' 
ADCP,ioos:station:wmo:42374:1,2010-05-06T11:40:00Z,28.8660,-88.0560,1.0,0.0,201.0,99.0,'11111222,11111222,11144222' 
ADCP,ioos:station:wmo:42374:1,2010-05-06T12:00:00Z,28.8660,-88.0560,1.0,0.0,201.0,99.0,'11111222,11111222,11144222' 
ADCP,ioos:station:wmo:42374:1,2010-05-06T12:20:00Z,28.8660,-88.0560,1.0,0.0,90.0,99.0,'11111222,11111222,11144222' 
ADCP,ioos:station:wmo:42374:1,2010-05-06T12:40:00Z,28.8660,-88.0560,1.0,0.0,70.0,99.0,'11111222,11111222,11144222' 
ADCP,ioos:station:wmo:42374:1,2010-05-06T13:00:00Z,28.8660,-88.0560,1.0,0.0,70.0,99.0,'11111222,11111222,11144222' 
ADCP,ioos:station:wmo:42374:1,2010-05-06T13:20:00Z,28.8660,-88.0560,1.0,0.0,106.0,99.0,'11111222,11111222,11144222' 
ADCP,ioos:station:wmo:42374:1,2010-05-06T13:40:00Z,28.8660,-88.0560,1.0,0.0,125.0,99.0,'11111222,11111222,11144222' 
ADCP,ioos:station:wmo:42374:1,2010-05-06T14:40:00Z,28.8660,-88.0560,1.0,0.0,49.0,99.0,'11111222,11111222,11144222' 
ADCP,ioos:station:wmo:42374:1,2010-05-06T15:00:00Z,28.8660,-88.0560,1.0,0.0,49.0,99.0,'11111222,11111222,11144222' 
ADCP,ioos:station:wmo:42374:1,2010-05-06T15:20:00Z,28.8660,-88.0560,1.0,0.0,46.0,99.0,'11111222,11111222,11144222' 
ADCP,ioos:station:wmo:42374:1,2010-05-06T16:20:00Z,28.8660,-88.0560,1.0,0.0,57.0,99.0,'11111222,11111222,11144222' 
ADCP,ioos:station:wmo:42374:1,2010-05-06T16:40:00Z,28.8660,-88.0560,1.0,0.0,66.0,99.0,'11111222,11111222,11144222' 
ADCP,ioos:station:wmo:42374:1,2010-05-06T17:00:00Z,28.8660,-88.0560,1.0,0.0,66.0,99.0,'11111222,11111222,11144222' 
ADCP,ioos:station:wmo:42374:1,2010-05-06T17:20:00Z,28.8660,-88.0560,1.0,0.0,73.0,99.0,'11111222,11111222,11144222' 
ADCP,ioos:station:wmo:42374:1,2010-05-06T17:40:00Z,28.8660,-88.0560,1.0,0.0,71.0,99.0,'11111222,11111222,11144222' 
ADCP,ioos:station:wmo:42374:1,2010-05-06T18:20:00Z,28.8660,-88.0560,1.0,0.0,75.0,99.0,'11111222,11111222,11144222' 
ADCP,ioos:station:wmo:42374:1,2010-05-06T18:40:00Z,28.8660,-88.0560,1.0,0.0,87.0,99.0,'11111222,11111222,11144222' 
ADCP,ioos:station:wmo:42374:1,2010-05-06T19:00:00Z,28.8660,-88.0560,1.0,0.0,87.0,99.0,'11111222,11111222,11144222' 
ADCP,ioos:station:wmo:42374:1,2010-05-06T19:20:00Z,28.8660,-88.0560,1.0,0.0,102.0,99.0,'11111222,11111222,11144222' 
ADCP,ioos:station:wmo:42374:1,2010-05-06T19:40:00Z,28.8660,-88.0560,1.0,0.0,114.0,99.0,'11111222,11111222,11144222' 
ADCP,ioos:station:wmo:42374:1,2010-05-06T20:00:00Z,28.8660,-88.0560,1.0,0.0,114.0,99.0,'11111222,11111222,11144222' 
ADCP,ioos:station:wmo:42374:1,2010-05-06T20:20:00Z,28.8660,-88.0560,1.0,0.0,114.0,99.0,'11111222,11111222,11144222' 
ADCP,ioos:station:wmo:42374:1,2010-05-06T20:40:00Z,28.8660,-88.0560,1.0,0.0,114.0,99.0,'11111222,11111222,11144222' 
ADCP,ioos:station:wmo:42374:1,2010-05-06T21:00:00Z,28.8660,-88.0560,1.0,0.0,114.0,99.0,'11111222,11111222,11144222' 
ADCP,ioos:station:wmo:42374:1,2010-05-06T21:20:00Z,28.8660,-88.0560,1.0,0.0,114.0,99.0,'11111222,11111222,11144222' 
ADCP,ioos:station:wmo:42374:1,2010-05-06T21:40:00Z,28.8660,-88.0560,1.0,0.0,114.0,99.0,'11111222,11111222,11144222' 
ADCP,ioos:station:wmo:42374:1,2010-05-06T22:00:00Z,28.8660,-88.0560,1.0,0.0,114.0,99.0,'11111222,11111222,11144222' 
ADCP,ioos:station:wmo:42374:1,2010-05-06T22:20:00Z,28.8660,-88.0560,1.0,0.0,114.0,99.0,'11111222,11111222,11144222' 
ADCP,ioos:station:wmo:42374:1,2010-05-06T22:40:00Z,28.8660,-88.0560,1.0,0.0,114.0,99.0,'11111222,11111222,11144222' 
ADCP,ioos:station:wmo:42374:1,2010-05-06T23:00:00Z,28.8660,-88.0560,1.0,0.0,114.0,99.0,'11111222,11111222,11144222' 
ADCP,ioos:station:wmo:42374:1,2010-05-06T23:20:00Z,28.8660,-88.0560,1.0,0.0,114.0,99.0,'11111222,11111222,11144222' 
ADCP,ioos:station:wmo:42374:1,2010-05-07T00:00:00Z,28.8660,-88.0560,1.0,0.0,114.0,99.0,'11111222,11111222,11144222' 
ADCP,ioos:station:wmo:42374:1,2010-05-07T00:20:00Z,28.8660,-88.0560,1.0,0.0,114.0,99.0,'11111222,11111222,11144222' 
ADCP,ioos:station:wmo:42374:1,2010-05-07T00:40:00Z,28.8660,-88.0560,1.0,0.0,114.0,99.0,'11111222,11111222,11144222' 
ADCP,ioos:station:wmo:42374:1,2010-05-07T01:00:00Z,28.8660,-88.0560,1.0,0.0,114.0,99.0,'11111222,11111222,11144222' 
ADCP,ioos:station:wmo:42374:1,2010-05-07T01:20:00Z,28.8660,-88.0560,1.0,0.0,114.0,99.0,'11111222,11111222,11144222' 
ADCP,ioos:station:wmo:42374:1,2010-05-07T01:40:00Z,28.8660,-88.0560,1.0,0.0,114.0,99.0,'11111222,11111222,11144222' 
ADCP,ioos:station:wmo:42374:1,2010-05-07T02:20:00Z,28.8660,-88.0560,1.0,0.0,114.0,99.0,'11111222,11111222,11144222' 
ADCP,ioos:station:wmo:42374:1,2010-05-07T02:40:00Z,28.8660,-88.0560,1.0,0.0,161.0,99.0,'11111222,11111222,11144222' 
ADCP,ioos:station:wmo:42374:1,2010-05-07T03:00:00Z,28.8660,-88.0560,1.0,0.0,161.0,99.0,'11111222,11111222,11144222' 
ADCP,ioos:station:wmo:42374:1,2010-05-07T03:20:00Z,28.8660,-88.0560,1.0,0.0,159.0,99.0,'11111222,11111222,11144222' 
ADCP,ioos:station:wmo:42374:1,2010-05-07T03:40:00Z,28.8660,-88.0560,1.0,0.0,160.0,99.0,'11111222,11111222,11144222' 
ADCP,ioos:station:wmo:42374:1,2010-05-07T04:00:00Z,28.8660,-88.0560,1.0,0.0,160.0,99.0,'11111222,11111222,11144222' 
ADCP,ioos:station:wmo:42374:1,2010-05-07T04:20:00Z,28.8660,-88.0560,1.0,0.0,166.0,99.0,'11111222,11111222,11144222' 
ADCP,ioos:station:wmo:42374:1,2010-05-07T04:40:00Z,28.8660,-88.0560,1.0,0.0,169.0,99.0,'11111222,11111222,11144222' 
ADCP,ioos:station:wmo:42374:1,2010-05-07T05:00:00Z,28.8660,-88.0560,1.0,0.0,169.0,99.0,'11111222,11111222,11144222' 
ADCP,ioos:station:wmo:42374:1,2010-05-07T05:40:00Z,28.8660,-88.0560,1.0,0.0,184.0,99.0,'11111222,11111222,11144222' 
ADCP,ioos:station:wmo:42374:1,2010-05-07T06:00:00Z,28.8660,-88.0560,1.0,0.0,184.0,99.0,'11111222,11111222,11144222' 
ADCP,ioos:station:wmo:42374:1,2010-05-07T06:20:00Z,28.8660,-88.0560,1.0,0.0,184.0,99.0,'11111222,11111222,11144222' 
ADCP,ioos:station:wmo:42374:1,2010-05-07T07:00:00Z,28.8660,-88.0560,1.0,0.0,184.0,99.0,'11111222,11111222,11144222' 
ADCP,ioos:station:wmo:42374:1,2010-05-07T07:20:00Z,28.8660,-88.0560,1.0,0.0,184.0,99.0,'11111222,11111222,11144222' 
ADCP,ioos:station:wmo:42374:1,2010-05-07T07:40:00Z,28.8660,-88.0560,1.0,0.0,184.0,99.0,'11111222,11111222,11144222' 
ADCP,ioos:station:wmo:42374:1,2010-05-07T08:00:00Z,28.8660,-88.0560,1.0,0.0,184.0,99.0,'11111222,11111222,11144222' 
ADCP,ioos:station:wmo:42374:1,2010-05-07T08:20:00Z,28.8660,-88.0560,1.0,0.0,184.0,99.0,'11111222,11111222,11144222' 
ADCP,ioos:station:wmo:42374:1,2010-05-07T08:40:00Z,28.8660,-88.0560,1.0,0.0,184.0,99.0,'11111222,11111222,11144222' 
ADCP,ioos:station:wmo:42374:1,2010-05-07T09:00:00Z,28.8660,-88.0560,1.0,0.0,184.0,99.0,'11111222,11111222,11144222' 
ADCP,ioos:station:wmo:42374:1,2010-05-07T09:20:00Z,28.8660,-88.0560,1.0,0.0,184.0,99.0,'11111222,11111222,11144222' 
ADCP,ioos:station:wmo:42374:1,2010-05-07T09:40:00Z,28.8660,-88.0560,1.0,0.0,184.0,99.0,'11111222,11111222,11144222' 
ADCP,ioos:station:wmo:42374:1,2010-05-07T10:00:00Z,28.8660,-88.0560,1.0,0.0,184.0,99.0,'11111222,11111222,11144222' 
ADCP,ioos:station:wmo:42374:1,2010-05-07T10:20:00Z,28.8660,-88.0560,1.0,0.0,184.0,99.0,'11111222,11111222,11144222' 
ADCP,ioos:station:wmo:42374:1,2010-05-07T10:40:00Z,28.8660,-88.0560,1.0,0.0,184.0,99.0,'11111222,11111222,11144222' 
ADCP,ioos:station:wmo:42374:1,2010-05-07T11:00:00Z,28.8660,-88.0560,1.0,0.0,184.0,99.0,'11111222,11111222,11144222' 
ADCP,ioos:station:wmo:42374:1,2010-05-07T11:20:00Z,28.8660,-88.0560,1.0,0.0,184.0,99.0,'11111222,11111222,11144222' 
ADCP,ioos:station:wmo:42374:1,2010-05-07T11:40:00Z,28.8660,-88.0560,1.0,0.0,175.0,99.0,'11111222,11111222,11144222' 
ADCP,ioos:station:wmo:42374:1,2010-05-07T12:00:00Z,28.8660,-88.0560,1.0,0.0,168.0,99.0,'11111222,11111222,11144222' 
ADCP,ioos:station:wmo:42374:1,2010-05-07T12:20:00Z,28.8660,-88.0560,1.0,0.0,168.0,99.0,'11111222,11111222,11144222' 
ADCP,ioos:station:wmo:42374:1,2010-05-07T12:40:00Z,28.8660,-88.0560,1.0,0.0,178.0,99.0,'11111222,11111222,11144222' 
ADCP,ioos:station:wmo:42374:1,2010-05-07T13:00:00Z,28.8660,-88.0560,1.0,0.0,178.0,99.0,'11111222,11111222,11144222' 
ADCP,ioos:station:wmo:42374:1,2010-05-07T13:20:00Z,28.8660,-88.0560,1.0,0.0,189.0,99.0,'11111222,11111222,11144222' 
ADCP,ioos:station:wmo:42374:1,2010-05-07T13:40:00Z,28.8660,-88.0560,1.0,0.0,184.0,99.0,'11111222,11111222,11144222' 
ADCP,ioos:station:wmo:42374:1,2010-05-07T14:00:00Z,28.8660,-88.0560,1.0,0.0,184.0,99.0,'11111222,11111222,11144222' 
ADCP,ioos:station:wmo:42374:1,2010-05-07T14:20:00Z,28.8660,-88.0560,1.0,0.0,212.0,99.0,'11111222,11111222,11144222' 
ADCP,ioos:station:wmo:42374:1,2010-05-07T14:40:00Z,28.8660,-88.0560,1.0,0.0,223.0,99.0,'11111222,11111222,11144222' 
ADCP,ioos:station:wmo:42374:1,2010-05-07T15:00:00Z,28.8660,-88.0560,1.0,0.0,223.0,99.0,'11111222,11111222,11144222' 
ADCP,ioos:station:wmo:42374:1,2010-05-07T15:20:00Z,28.8660,-88.0560,1.0,0.0,219.0,99.0,'11111222,11111222,11144222' 
ADCP,ioos:station:wmo:42374:1,2010-05-07T16:00:00Z,28.8660,-88.0560,1.0,0.0,219.0,99.0,'11111222,11111222,11144222' 
ADCP,ioos:station:wmo:42374:1,2010-05-07T16:20:00Z,28.8660,-88.0560,1.0,0.0,216.0,99.0,'11111222,11111222,11144222' 
ADCP,ioos:station:wmo:42374:1,2010-05-07T16:40:00Z,28.8660,-88.0560,1.0,0.0,214.0,99.0,'11111222,11111222,11144222' 
ADCP,ioos:station:wmo:42374:1,2010-05-07T17:00:00Z,28.8660,-88.0560,1.0,0.0,214.0,99.0,'11111222,11111222,11144222' 
ADCP,ioos:station:wmo:42374:1,2010-05-07T17:20:00Z,28.8660,-88.0560,1.0,0.0,215.0,99.0,'11111222,11111222,11144222' 
ADCP,ioos:station:wmo:42374:1,2010-05-07T17:40:00Z,28.8660,-88.0560,1.0,0.0,221.0,99.0,'11111222,11111222,11144222' 
ADCP,ioos:station:wmo:42374:1,2010-05-07T18:00:00Z,28.8660,-88.0560,1.0,0.0,221.0,99.0,'11111222,11111222,11144222' 
ADCP,ioos:station:wmo:42374:1,2010-05-07T18:20:00Z,28.8660,-88.0560,1.0,0.0,230.0,99.0,'11111222,11111222,11144222' 
ADCP,ioos:station:wmo:42374:1,2010-05-07T18:40:00Z,28.8660,-88.0560,1.0,0.0,237.0,99.0,'11111222,11111222,11144222' 
ADCP,ioos:station:wmo:42374:1,2010-05-07T19:00:00Z,28.8660,-88.0560,1.0,0.0,237.0,99.0,'11111222,11111222,11144222' 
ADCP,ioos:station:wmo:42374:1,2010-05-07T19:20:00Z,28.8660,-88.0560,1.0,0.0,250.0,99.0,'11111222,11111222,11144222' 
ADCP,ioos:station:wmo:42374:1,2010-05-07T19:40:00Z,28.8660,-88.0560,1.0,0.0,262.0,99.0,'11111222,11111222,11144222' 
ADCP,ioos:station:wmo:42374:1,2010-05-07T20:00:00Z,28.8660,-88.0560,1.0,0.0,262.0,99.0,'11111222,11111222,11144222' 
ADCP,ioos:station:wmo:42374:1,2010-05-07T20:20:00Z,28.8660,-88.0560,1.0,0.0,267.0,99.0,'11111222,11111222,11144222' 
ADCP,ioos:station:wmo:42374:1,2010-05-07T20:40:00Z,28.8660,-88.0560,1.0,0.0,274.0,99.0,'11111222,11111222,11144222' 
ADCP,ioos:station:wmo:42374:1,2010-05-07T21:00:00Z,28.8660,-88.0560,1.0,0.0,274.0,99.0,'11111222,11111222,11144222' 
ADCP,ioos:station:wmo:42374:1,2010-05-07T21:20:00Z,28.8660,-88.0560,1.0,0.0,283.0,99.0,'11111222,11111222,11144222' 
ADCP,ioos:station:wmo:42374:1,2010-05-07T22:00:00Z,28.8660,-88.0560,1.0,0.0,278.0,99.0,'11111222,11111222,11144222' 
ADCP,ioos:station:wmo:42374:1,2010-05-07T22:20:00Z,28.8660,-88.0560,1.0,0.0,284.0,99.0,'11111222,11111222,11144222' 
ADCP,ioos:station:wmo:42374:1,2010-05-07T22:40:00Z,28.8660,-88.0560,1.0,0.0,277.0,99.0,'11111222,11111222,11144222' 
ADCP,ioos:station:wmo:42374:1,2010-05-07T23:00:00Z,28.8660,-88.0560,1.0,0.0,277.0,99.0,'11111222,11111222,11144222' 
ADCP,ioos:station:wmo:42374:1,2010-05-07T23:20:00Z,28.8660,-88.0560,1.0,0.0,253.0,99.0,'11111222,11111222,11144222' 
ADCP,ioos:station:wmo:42374:1,2010-05-08T00:00:00Z,28.8660,-88.0560,1.0,0.0,252.0,99.0,'11111222,11111222,11144222' 
ADCP,ioos:station:wmo:42374:1,2010-05-08T00:20:00Z,28.8660,-88.0560,1.0,0.0,248.0,99.0,'11111222,11111222,11144222' 
ADCP,ioos:station:wmo:42374:1,2010-05-08T00:40:00Z,28.8660,-88.0560,1.0,0.0,250.0,99.0,'11111222,11111222,11144222' 
ADCP,ioos:station:wmo:42374:1,2010-05-08T01:00:00Z,28.8660,-88.0560,1.0,0.0,250.0,99.0,'11111222,11111222,11144222' 
ADCP,ioos:station:wmo:42374:1,2010-05-08T01:20:00Z,28.8660,-88.0560,1.0,0.0,258.0,99.0,'11111222,11111222,11144222' 
ADCP,ioos:station:wmo:42374:1,2010-05-08T01:40:00Z,28.8660,-88.0560,1.0,0.0,250.0,99.0,'11111222,11111222,11144222' 
ADCP,ioos:station:wmo:42374:1,2010-05-08T02:00:00Z,28.8660,-88.0560,1.0,0.0,250.0,99.0,'11111222,11111222,11144222' 
ADCP,ioos:station:wmo:42374:1,2010-05-08T02:20:00Z,28.8660,-88.0560,1.0,0.0,232.0,99.0,'11111222,11111222,11144222' 
ADCP,ioos:station:wmo:42374:1,2010-05-08T02:40:00Z,28.8660,-88.0560,1.0,0.0,229.0,99.0,'11111222,11111222,11144222' 
ADCP,ioos:station:wmo:42374:1,2010-05-08T03:00:00Z,28.8660,-88.0560,1.0,0.0,229.0,99.0,'11111222,11111222,11144222' 
ADCP,ioos:station:wmo:42374:1,2010-05-08T03:20:00Z,28.8660,-88.0560,1.0,0.0,222.0,99.0,'11111222,11111222,11144222' 
ADCP,ioos:station:wmo:42374:1,2010-05-08T03:40:00Z,28.8660,-88.0560,1.0,0.0,230.0,99.0,'11111222,11111222,11144222' 
ADCP,ioos:station:wmo:42374:1,2010-05-08T04:00:00Z,28.8660,-88.0560,1.0,0.0,230.0,99.0,'11111222,11111222,11144222' 
ADCP,ioos:station:wmo:42374:1,2010-05-08T04:20:00Z,28.8660,-88.0560,1.0,0.0,235.0,99.0,'11111222,11111222,11144222' 
ADCP,ioos:station:wmo:42374:1,2010-05-08T04:40:00Z,28.8660,-88.0560,1.0,0.0,234.0,99.0,'11111222,11111222,11144222' 
ADCP,ioos:station:wmo:42374:1,2010-05-08T05:00:00Z,28.8660,-88.0560,1.0,0.0,234.0,99.0,'11111222,11111222,11144222' 
ADCP,ioos:station:wmo:42374:1,2010-05-08T05:20:00Z,28.8660,-88.0560,1.0,0.0,232.0,99.0,'11111222,11111222,11144222' 
ADCP,ioos:station:wmo:42374:1,2010-05-08T05:40:00Z,28.8660,-88.0560,1.0,0.0,233.0,99.0,'11111222,11111222,11144222' 
ADCP,ioos:station:wmo:42374:1,2010-05-08T06:00:00Z,28.8660,-88.0560,1.0,0.0,233.0,99.0,'11111222,11111222,11144222' 
ADCP,ioos:station:wmo:42374:1,2010-05-08T06:20:00Z,28.8660,-88.0560,1.0,0.0,233.0,99.0,'11111222,11111222,11144222' 
ADCP,ioos:station:wmo:42374:1,2010-05-08T06:40:00Z,28.8660,-88.0560,1.0,0.0,233.0,99.0,'11111222,11111222,11144222' 
ADCP,ioos:station:wmo:42374:1,2010-05-08T07:00:00Z,28.8660,-88.0560,1.0,0.0,233.0,99.0,'11111222,11111222,11144222' 
ADCP,ioos:station:wmo:42374:1,2010-05-08T07:20:00Z,28.8660,-88.0560,1.0,0.0,233.0,99.0,'11111222,11111222,11144222' 
ADCP,ioos:station:wmo:42374:1,2010-05-08T07:40:00Z,28.8660,-88.0560,1.0,0.0,233.0,99.0,'11111222,11111222,11144222' 
ADCP,ioos:station:wmo:42374:1,2010-05-08T08:00:00Z,28.8660,-88.0560,1.0,0.0,233.0,99.0,'11111222,11111222,11144222' 
ADCP,ioos:station:wmo:42374:1,2010-05-08T08:20:00Z,28.8660,-88.0560,1.0,0.0,233.0,99.0,'11111222,11111222,11144222' 
ADCP,ioos:station:wmo:42374:1,2010-05-08T08:40:00Z,28.8660,-88.0560,1.0,0.0,233.0,99.0,'11111222,11111222,11144222' 
ADCP,ioos:station:wmo:42374:1,2010-05-08T09:20:00Z,28.8660,-88.0560,1.0,0.0,233.0,99.0,'11111222,11111222,11144222' 
ADCP,ioos:station:wmo:42374:1,2010-05-08T09:40:00Z,28.8660,-88.0560,1.0,0.0,233.0,99.0,'11111222,11111222,11144222' 
ADCP,ioos:station:wmo:42374:1,2010-05-08T10:20:00Z,28.8660,-88.0560,1.0,0.0,233.0,99.0,'11111222,11111222,11144222' 
ADCP,ioos:station:wmo:42374:1,2010-05-08T10:40:00Z,28.8660,-88.0560,1.0,0.0,233.0,99.0,'11111222,11111222,11144222' 
ADCP,ioos:station:wmo:42374:1,2010-05-08T11:00:00Z,28.8660,-88.0560,1.0,0.0,233.0,99.0,'11111222,11111222,11144222' 
ADCP,ioos:station:wmo:42374:1,2010-05-08T11:20:00Z,28.8660,-88.0560,1.0,0.0,233.0,99.0,'11111222,11111222,11144222' 
ADCP,ioos:station:wmo:42374:1,2010-05-08T11:40:00Z,28.8660,-88.0560,1.0,0.0,233.0,99.0,'11111222,11111222,11144222' 
ADCP,ioos:station:wmo:42374:1,2010-05-08T12:00:00Z,28.8660,-88.0560,1.0,0.0,233.0,99.0,'11111222,11111222,11144222' 
ADCP,ioos:station:wmo:42374:1,2010-05-08T12:20:00Z,28.8660,-88.0560,1.0,0.0,233.0,99.0,'11111222,11111222,11144222' 
ADCP,ioos:station:wmo:42374:1,2010-05-08T12:40:00Z,28.8660,-88.0560,1.0,0.0,233.0,99.0,'11111222,11111222,11144222' 
ADCP,ioos:station:wmo:42374:1,2010-05-08T13:00:00Z,28.8660,-88.0560,1.0,0.0,233.0,99.0,'11111222,11111222,11144222' 
ADCP,ioos:station:wmo:42374:1,2010-05-08T13:20:00Z,28.8660,-88.0560,1.0,0.0,233.0,99.0,'11111222,11111222,11144222' 
ADCP,ioos:station:wmo:42374:1,2010-05-08T13:40:00Z,28.8660,-88.0560,1.0,0.0,233.0,99.0,'11111222,11111222,11144222' 
ADCP,ioos:station:wmo:42374:1,2010-05-08T14:00:00Z,28.8660,-88.0560,1.0,0.0,233.0,99.0,'11111222,11111222,11144222' 
ADCP,ioos:station:wmo:42374:1,2010-05-08T14:20:00Z,28.8660,-88.0560,1.0,0.0,233.0,99.0,'11111222,11111222,11144222' 
ADCP,ioos:station:wmo:42374:1,2010-05-08T14:40:00Z,28.8660,-88.0560,1.0,0.0,233.0,99.0,'11111222,11111222,11144222' 
ADCP,ioos:station:wmo:42374:1,2010-05-08T15:00:00Z,28.8660,-88.0560,1.0,0.0,233.0,99.0,'11111222,11111222,11144222' 
ADCP,ioos:station:wmo:42374:1,2010-05-08T15:20:00Z,28.8660,-88.0560,1.0,0.0,233.0,99.0,'11111222,11111222,11144222' 
ADCP,ioos:station:wmo:42374:1,2010-05-08T15:40:00Z,28.8660,-88.0560,1.0,0.0,233.0,99.0,'11111222,11111222,11144222' 
ADCP,ioos:station:wmo:42374:1,2010-05-08T16:00:00Z,28.8660,-88.0560,1.0,0.0,233.0,99.0,'11111222,11111222,11144222' 
ADCP,ioos:station:wmo:42374:1,2010-05-08T16:20:00Z,28.8660,-88.0560,1.0,0.0,233.0,99.0,'11111222,11111222,11144222' 
ADCP,ioos:station:wmo:42374:1,2010-05-08T16:40:00Z,28.8660,-88.0560,1.0,0.0,233.0,99.0,'11111222,11111222,11144222' 
ADCP,ioos:station:wmo:42374:1,2010-05-08T17:00:00Z,28.8660,-88.0560,1.0,0.0,233.0,99.0,'11111222,11111222,11144222' 
ADCP,ioos:station:wmo:42374:1,2010-05-08T17:20:00Z,28.8660,-88.0560,1.0,0.0,233.0,99.0,'11111222,11111222,11144222' 
ADCP,ioos:station:wmo:42374:1,2010-05-08T17:40:00Z,28.8660,-88.0560,1.0,0.0,233.0,99.0,'11111222,11111222,11144222' 
ADCP,ioos:station:wmo:42374:1,2010-05-08T18:00:00Z,28.8660,-88.0560,1.0,0.0,233.0,99.0,'11111222,11111222,11144222' 
ADCP,ioos:station:wmo:42374:1,2010-05-08T18:20:00Z,28.8660,-88.0560,1.0,0.0,233.0,99.0,'11111222,11111222,11144222' 
ADCP,ioos:station:wmo:42374:1,2010-05-08T18:40:00Z,28.8660,-88.0560,1.0,0.0,233.0,99.0,'11111222,11111222,11144222' 
ADCP,ioos:station:wmo:42374:1,2010-05-08T19:00:00Z,28.8660,-88.0560,1.0,0.0,233.0,99.0,'11111222,11111222,11144222' 
ADCP,ioos:station:wmo:42374:1,2010-05-08T19:20:00Z,28.8660,-88.0560,1.0,0.0,233.0,99.0,'11111222,11111222,11144222' 
ADCP,ioos:station:wmo:42374:1,2010-05-08T19:40:00Z,28.8660,-88.0560,1.0,0.0,233.0,99.0,'11111222,11111222,11144222' 
ADCP,ioos:station:wmo:42374:1,2010-05-08T20:00:00Z,28.8660,-88.0560,1.0,0.0,233.0,99.0,'11111222,11111222,11144222' 
ADCP,ioos:station:wmo:42374:1,2010-05-08T20:20:00Z,28.8660,-88.0560,1.0,0.0,233.0,99.0,'11111222,11111222,11144222' 
ADCP,ioos:station:wmo:42374:1,2010-05-08T20:40:00Z,28.8660,-88.0560,1.0,0.0,233.0,99.0,'11111222,11111222,11144222' 
ADCP,ioos:station:wmo:42374:1,2010-05-08T21:00:00Z,28.8660,-88.0560,1.0,0.0,233.0,99.0,'11111222,11111222,11144222' 
ADCP,ioos:station:wmo:42374:1,2010-05-08T21:20:00Z,28.8660,-88.0560,1.0,0.0,233.0,99.0,'11111222,11111222,11144222' 
ADCP,ioos:station:wmo:42374:1,2010-05-08T21:40:00Z,28.8660,-88.0560,1.0,0.0,233.0,99.0,'11111222,11111222,11144222' 
ADCP,ioos:station:wmo:42374:1,2010-05-08T22:00:00Z,28.8660,-88.0560,1.0,0.0,233.0,99.0,'11111222,11111222,11144222' 
ADCP,ioos:station:wmo:42374:1,2010-05-08T22:20:00Z,28.8660,-88.0560,1.0,0.0,233.0,99.0,'11111222,11111222,11144222' 
ADCP,ioos:station:wmo:42374:1,2010-05-08T22:40:00Z,28.8660,-88.0560,1.0,0.0,233.0,99.0,'11111222,11111222,11144222' 
ADCP,ioos:station:wmo:42374:1,2010-05-08T23:00:00Z,28.8660,-88.0560,1.0,0.0,233.0,99.0,'11111222,11111222,11144222' 
ADCP,ioos:station:wmo:42374:1,2010-05-08T23:20:00Z,28.8660,-88.0560,1.0,0.0,233.0,99.0,'11111222,11111222,11144222' 
ADCP,ioos:station:wmo:42374:1,2010-05-08T23:40:00Z,28.8660,-88.0560,1.0,0.0,233.0,99.0,'11111222,11111222,11144222' 
ADCP,ioos:station:wmo:42374:1,2010-05-09T00:00:00Z,28.8660,-88.0560,1.0,0.0,233.0,99.0,'11111222,11111222,11144222' 
ADCP,ioos:station:wmo:42374:1,2010-05-09T00:20:00Z,28.8660,-88.0560,1.0,0.0,233.0,99.0,'11111222,11111222,11144222' 